Regional Weather Roundup
Issued by NWS Cleveland, OH

Home | Current Version | Previous Version | Text Only | Print | Product List | Glossary Off
Versions: 1 2 3 4 5 6 7 8 9 10 11 12 13 14 15 16 17 18 19 20 21 22 23 24 25 26 27 28 29 30 31 32 33 34 35 36 37 38 39 40 41 42 43 44 45 46 47 48 49 50

000
ASUS41 KCLE 212300
RWRCLE
OHIO REGIONAL WEATHER ROUNDUP
NATIONAL WEATHER SERVICE WILMINGTON, OH
700 PM EDT SUN SEP 21 2014

NOTE: "FAIR" INDICATES FEW OR NO CLOUDS BELOW 12,000 FEET WITH NO
SIGNIFICANT WEATHER AND/OR OBSTRUCTIONS TO VISIBILITY.

OHZ001>008-015>018-024>027-034-035-043-044-220000-
   NORTHWEST OHIO

CITY           SKY/WX    TMP DP  RH WIND       PRES   REMARKS
DEFIANCE       CLOUDY     1  32 100 NW10G21   29.90R WCI -15
FINDLAY        MOCLDY    63  51  65 W15G25    29.86R
TOLEDO EXPRESS LGT RAIN  58  53  84 NW12G26   29.86R
TOLEDO METCALF LGT RAIN  61  52  72 NW22G28   29.85R
LIMA           CLOUDY    60  55  83 W12G20    29.89R
$$

OHZ009>014-019>023-028>033-038-089-220000-
   NORTHEAST OHIO

CITY           SKY/WX    TMP DP  RH WIND       PRES   REMARKS
CLE-HOPKINS    LGT RAIN  62  52  69 W21G28    29.79R
CLE-LAKEFRONT  CLOUDY    63  55  75 W31G39    29.74R
CUY CO. ARPT   LGT RAIN  59  59 100 W23G37    29.77R
LORAIN-ELYRIA  MOCLDY    65  52  62 W15G23    29.80R
ASHTABULA      MOCLDY    62  51  67 W15G24    29.73R
AKRON-CANTON   PTCLDY    64  46  52 W18G30    29.79R
WOOSTER        NOT AVBL
MANSFIELD      CLOUDY    61  50  67 W12G25    29.84R
YOUNGSTOWN     MOCLDY    65  51  60 W15G21    29.75R
$$

OHZ042-051>053-060>062-070>072-077>081-220000-
  SOUTHWEST OHIO

CITY           SKY/WX    TMP DP  RH WIND       PRES   REMARKS
CINC-COVINGTON PTCLDY    70  47  43 NW22G28   29.91R
CINC-LUNKEN    PTCLDY    71  48  43 N21G29    29.91R
HAMILTON       CLEAR     68  49  50 NW18G31   29.93R
DAYTON         NOT AVBL
WRIGHT-PAT AFB PTCLDY    67  47  49 NW18      29.91R
DAYTON GENERAL MOCLDY    67  47  48 NW17G24   29.91R
WILMINGTON     CLEAR     67  46  47 NW22G29   29.89R
$$

OHZ036-037-039>041-045>050-054>059-063>069-073>076-082>088-220000-
  CENTRAL AND SOUTHEAST OHIO

CITY           SKY/WX    TMP DP  RH WIND       PRES   REMARKS
COLUMBUS       PTCLDY    70  45  40 NW24G33   29.85R
OSU AIRPORT    PTCLDY    66  46  48 W21G36    29.86R
BOLTON FIELD   CLEAR     66  48  52 W16G26    29.87R
RICKENBACK AFB NOT AVBL
NEWARK         CLEAR     67  45  45 NW12G23   29.84R
MARION         MOCLDY    63  48  58 W21G30    29.86R
LANCASTER      PTCLDY    68  46  45 NW13G22   29.86R
ZANESVILLE     PTCLDY    68  46  45 NW21G30   29.82R
NEW PHILLY     CLEAR     67  47  48 W12G23    29.81R
$$


USA.gov is the U.S. government's official web portal to all federal, state and local government web resources and services.